Wind_Speed
6 5 5 6 5 5 4 5 6 6 4 4 5 4 3 3 2 1 1 1 1 1 1 2 3 4 4 1 3 5 5 5 5 6 7 8 8 7 7 6 5 5 5 6 5 5 6 6 6 6 5 5 6 6 6 5 4 2 1 1 2 3 3 4 4 3 3 3 4 5 5 6 6 7 7 7 7 7 8 10 10 11 11 12 12
6 5 6 7 6 4 4 4 4 4 2 4 5 5 4 5 4 3 2 2 2 2 2 2 1 3 4 2 1 4 5 5 4 6 7 7 8 8 8 7 6 6 6 5 4 5 6 6 6 6 6 6 6 5 6 5 4 4 3 2 1 1 2 2 2 3 3 3 3 4 4 4 4 5 5 6 6 6 7 8 8 9 10 11 11
4 5 6 6 4 3 4 3 2 1 1 2 4 5 6 6 5 4 4 3 3 2 2 2 2 1 3 3 1 2 5 6 5 5 7 8 8 9 9 8 7 6 6 6 4 5 6 7 7 7 6 6 6 6 6 6 5 5 4 3 3 2 1 0 1 2 2 3 3 3 3 3 3 4 4 5 5 5 5 6 7 8 9 10 10
4 4 5 4 3 2 2 2 2 1 0 1 3 5 6 7 7 6 5 5 3 3 2 2 3 3 2 3 2 1 4 6 6 6 6 8 9 9 9 8 7 7 7 7 5 4 7 7 7 6 7 7 7 6 6 6 5 5 6 6 5 4 3 2 1 1 2 2 2 3 3 3 2 3 3 4 4 4 4 5 6 7 8 9 9
4 5 5 4 3 2 2 2 2 2 1 2 3 5 6 7 7 7 6 6 4 3 3 2 3 3 3 3 3 1 3 6 7 7 6 8 9 10 10 9 8 7 7 7 6 4 7 8 6 5 7 7 7 8 7 6 6 7 7 8 7 6 4 4 3 2 1 2 2 2 2 3 2 2 3 3 3 4 4 5 6 6 7 7 8
6 6 5 4 3 2 2 2 3 2 2 2 3 4 5 6 6 7 7 6 5 4 4 4 3 3 2 2 2 2 1 4 6 7 7 8 9 10 11 10 9 8 8 7 7 6 7 9 7 5 6 6 6 7 8 7 7 8 8 8 8 7 5 4 4 3 2 2 2 2 2 2 2 2 3 3 3 3 4 5 6 6 5 6 7
6 6 6 5 4 3 2 1 2 2 2 2 3 4 5 5 5 6 6 6 4 4 4 5 5 3 2 1 1 1 0 2 5 7 8 10 11 12 12 11 10 10 9 8 8 7 7 9 9 7 7 6 5 6 8 8 8 8 8 8 8 8 7 6 4 4 4 3 2 2 2 2 2 2 2 2 3 3 3 4 5 5 4 5 5
5 6 6 6 5 4 3 2 1 2 2 3 4 5 6 5 5 6 6 6 5 4 4 4 5 4 2 1 0 1 1 1 4 7 9 11 12 13 13 13 12 11 10 9 8 8 8 9 9 8 7 7 7 6 6 8 8 8 9 9 9 8 9 8 6 5 5 5 4 3 2 3 3 3 3 2 2 2 3 3 4 4 4 5 5
3 4 4 5 4 4 3 2 2 2 3 4 5 5 5 5 5 5 6 6 6 5 4 3 3 3 3 2 0 0 1 2 4 7 9 11 12 13 14 14 13 12 11 10 9 9 9 9 9 9 8 8 8 7 6 7 8 8 8 9 9 9 9 10 9 7 6 6 5 4 4 4 3 3 3 3 3 3 3 3 4 4 4 5 5
3 2 2 2 2 2 2 2 2 3 4 4 5 5 5 5 5 5 5 6 5 5 5 3 2 2 3 3 3 2 1 2 4 5 8 10 11 12 14 15 14 14 12 12 11 9 9 10 10 10 9 9 9 9 8 7 7 8 8 8 10 11 10 10 11 9 8 7 6 5 5 6 5 4 4 4 4 4 4 4 3 4 4 5 5
4 3 3 3 3 2 2 1 2 3 4 5 5 5 5 6 5 4 4 5 5 5 5 5 4 3 3 3 3 4 3 2 3 4 6 7 9 11 12 14 15 15 14 13 13 11 10 11 11 11 11 10 10 9 9 9 8 8 9 9 9 11 11 11 10 10 10 9 8 6 6 7 7 6 5 5 4 4 4 4 4 4 4 5 5
5 5 4 4 3 3 2 1 1 2 4 5 5 4 4 4 4 2 3 5 6 5 4 5 5 4 3 3 3 4 5 4 3 3 4 5 6 7 8 9 11 12 13 14 14 13 13 13 12 12 12 12 11 10 10 10 10 9 9 10 10 10 11 11 11 11 11 11 9 8 7 7 7 7 7 6 5 4 4 3 4 4 4 4 5
5 4 4 4 3 3 2 2 1 2 3 5 3 1 1 2 3 2 3 5 7 6 5 6 6 4 2 1 2 4 5 6 4 4 5 6 6 5 5 5 6 7 9 11 12 13 14 14 13 13 14 13 12 12 12 12 12 11 10 11 11 10 11 11 11 11 12 12 11 10 9 8 7 7 7 7 6 4 4 4 4 4 4 4 4
5 4 5 5 4 4 3 2 2 2 3 4 3 2 3 3 2 2 3 4 6 6 6 5 5 6 4 0 1 1 2 4 6 6 6 7 7 7 6 5 4 4 5 6 8 9 11 12 12 13 14 14 13 13 14 14 14 14 13 13 13 12 11 10 10 10 11 12 12 11 11 9 8 7 7 7 7 6 6 6 5 4 4 4 4
4 4 6 6 5 4 4 3 2 1 2 3 3 2 4 4 3 3 3 2 2 4 5 5 3 5 7 2 1 1 1 1 3 6 7 7 8 8 8 7 6 5 5 5 5 7 7 8 9 11 12 12 12 13 14 15 16 16 16 15 15 14 12 10 9 10 10 11 12 12 12 11 10 8 7 7 7 7 7 7 7 6 6 5 5
4 4 6 5 4 5 5 4 3 2 0 2 2 2 3 4 3 2 3 2 2 3 3 3 2 3 4 2 1 1 1 1 1 2 4 6 7 8 9 9 8 7 6 5 5 6 6 6 7 9 10 9 11 13 14 14 16 17 18 17 16 15 15 13 11 11 11 10 10 11 12 12 12 10 9 9 8 8 8 8 8 8 8 8 7
4 5 5 4 4 5 5 4 3 3 2 2 2 1 1 2 2 2 3 3 3 3 2 1 2 4 4 2 2 0 2 2 2 1 2 3 5 5 6 6 5 5 4 3 4 6 7 7 7 7 7 7 10 13 14 14 15 16 16 17 18 18 17 16 14 13 13 13 11 11 11 12 12 12 11 11 10 10 10 10 10 9 9 10 9
5 5 5 4 4 4 4 3 3 3 3 3 3 3 3 1 2 2 1 1 2 2 2 1 2 4 5 6 3 1 3 3 1 0 1 1 2 3 2 1 1 1 1 0 2 3 4 6 7 6 5 3 4 8 11 12 12 12 13 14 16 18 17 16 16 16 17 16 14 13 13 13 13 13 13 12 12 12 12 12 11 11 11 11 11
6 6 5 5 4 3 3 3 2 2 2 2 3 4 5 4 4 3 3 1 2 3 4 2 1 3 5 4 3 3 6 5 2 2 1 2 3 3 4 2 1 1 1 1 3 4 5 4 6 6 5 4 4 6 8 10 10 11 12 13 13 14 14 15 15 16 19 19 18 16 15 15 15 16 15 14 14 14 14 14 13 13 13 13 13
6 6 6 6 5 4 4 4 4 3 1 2 3 4 4 4 5 5 4 3 1 3 5 4 4 3 2 1 2 4 6 5 5 4 3 2 2 5 9 10 8 6 3 3 6 5 5 5 4 4 5 5 6 6 7 7 8 8 7 8 10 9 8 8 8 9 12 16 19 18 18 19 18 18 19 17 16 17 16 16 16 15 14 14 14
7 7 7 6 5 4 5 5 4 2 2 2 3 3 3 4 5 5 5 6 5 3 4 4 4 5 4 3 4 5 5 5 5 5 5 3 1 2 7 11 13 13 11 9 11 9 7 8 7 7 5 4 5 5 6 7 6 5 4 4 5 6 6 5 6 6 4 5 11 16 20 21 19 19 19 17 18 19 19 17 17 17 17 17 16
8 9 8 7 5 4 4 4 3 2 3 3 4 4 4 4 5 6 6 6 6 5 5 6 5 5 6 6 6 6 6 7 8 9 8 7 4 2 5 9 11 16 20 20 20 18 16 14 14 14 12 9 6 6 6 6 5 5 4 4 4 5 6 6 7 8 7 4 1 6 10 14 17 19 18 17 17 17 18 18 18 18 18 19 19
10 9 8 8 7 7 6 6 5 5 5 5 5 5 5 5 5 5 5 6 6 7 8 9 9 9 9 8 8 9 9 8 8 8 7 6 5 3 6 11 12 16 22 25 25 23 21 21 20 20 19 18 16 14 12 9 6 5 4 4 4 5 6 6 7 9 9 7 6 4 2 2 8 12 15 17 16 15 15 17 19 19 19 19 20
11 9 8 8 8 9 9 9 9 8 7 6 5 5 5 5 5 6 6 7 7 8 10 10 9 10 11 11 11 12 12 11 10 9 8 7 7 5 5 9 10 11 15 20 24 25 24 23 22 22 21 21 21 20 18 16 13 10 6 5 5 5 7 8 8 9 9 9 9 8 7 5 4 3 5 9 11 12 15 16 16 16 18 20 20
11 9 8 7 7 8 9 9 9 9 9 8 7 6 5 6 7 8 9 9 9 8 10 10 10 10 11 12 12 13 14 13 11 11 10 9 9 7 5 7 7 7 9 11 15 19 24 24 21 20 20 19 19 18 18 17 17 15 12 10 9 9 9 8 8 9 8 8 8 8 7 6 5 4 4 4 4 7 11 12 12 13 15 16 17
10 9 7 6 6 7 7 8 8 9 9 9 8 6 6 6 7 9 9 9 8 8 9 10 10 10 10 11 12 13 14 13 13 13 13 12 10 7 7 8 8 8 8 10 11 12 16 21 22 20 19 19 17 16 16 15 14 13 12 12 11 10 9 8 7 7 6 6 5 5 4 4 5 4 4 4 4 5 7 9 11 12 13 13 14
9 8 7 6 5 5 5 5 6 7 8 8 8 6 6 6 7 8 9 8 8 9 10 10 10 9 9 10 12 13 13 12 13 14 14 15 13 9 9 7 6 5 6 10 15 14 12 15 20 21 19 19 17 16 14 13 13 11 9 10 10 10 9 8 7 6 5 4 3 3 3 3 4 4 4 4 5 6 7 8 9 11 12 13 14
9 8 6 5 3 3 2 2 3 4 4 5 7 6 6 6 7 8 8 8 8 9 10 10 10 10 9 10 12 13 13 12 13 13 14 15 16 14 10 8 6 4 2 4 8 12 13 14 17 20 20 19 18 16 14 13 13 12 10 10 10 10 10 9 8 7 7 6 5 4 4 4 5 5 5 6 7 8 9 10 10 10 12 13 14
8 8 7 5 4 2 1 0 0 1 2 2 4 5 5 6 6 7 8 7 7 9 9 10 11 10 11 12 12 13 12 12 13 13 13 14 15 17 16 11 8 5 2 2 2 5 12 15 16 18 19 18 18 16 15 14 13 12 11 10 10 11 11 9 9 9 8 8 7 6 5 6 6 7 7 7 7 8 9 9 9 9 9 11 13
7 7 7 7 5 3 1 2 3 2 2 1 1 3 4 4 5 6 6 6 6 7 8 9 10 10 11 12 12 12 11 12 14 14 13 14 14 16 17 16 14 10 5 3 1 4 9 13 15 17 17 17 17 16 15 14 13 12 11 10 10 10 10 9 8 9 8 8 7 7 6 6 6 7 7 7 7 6 7 7 8 8 8 9 10
7 7 7 7 6 4 3 2 3 4 4 3 2 2 2 2 3 3 4 4 4 6 6 7 8 9 10 10 10 10 9 10 11 12 11 12 13 14 15 15 16 15 11 7 3 3 7 10 13 15 16 16 16 16 15 14 13 12 11 10 10 9 9 8 9 9 8 8 7 7 7 6 6 6 6 6 6 6 6 6 7 8 9 10 10
7 6 6 6 5 4 3 3 3 4 5 5 5 4 3 3 2 1 1 2 3 3 4 5 6 6 8 8 8 8 7 7 8 8 9 9 10 12 13 14 16 15 14 12 7 4 6 9 12 14 15 15 15 16 16 15 14 14 12 11 10 9 8 8 9 9 9 8 8 8 7 7 6 6 6 6 6 6 6 7 7 8 9 9 10
8 7 7 7 6 5 5 4 4 5 6 7 7 7 6 5 4 3 2 1 1 1 2 3 4 4 5 6 6 6 5 4 5 5 6 6 7 9 10 11 14 13 13 13 10 6 5 8 10 13 14 15 15 16 17 17 17 16 15 13 12 11 10 10 9 9 9 9 9 8 8 7 7 7 7 7 7 7 7 7 7 7 8 8 9
8 8 8 8 8 8 8 8 7 7 7 8 9 10 9 8 8 7 6 5 4 4 3 2 3 4 4 4 4 5 4 3 3 3 4 4 4 5 7 7 10 12 12 12 10 8 7 8 10 12 14 15 16 17 18 18 19 18 17 16 15 14 13 12 12 11 11 10 10 10 10 9 9 9 9 8 8 8 8 8 8 8 8 8 8
10 10 9 9 10 11 11 11 11 10 10 11 11 12 12 12 11 10 9 9 8 8 7 6 5 5 5 4 4 4 4 3 3 3 3 3 2 3 5 5 7 9 11 11 11 10 9 9 10 12 14 15 16 17 18 18 19 18 18 17 16 15 14 14 14 13 13 12 11 11 11 11 11 11 11 11 11 11 10 10 10 10 10 9 9
11 9 10 10 10 11 14 14 14 13 13 14 14 14 14 15 14 14 14 13 12 11 10 9 8 7 7 7 6 6 5 5 4 3 3 3 1 2 3 4 5 7 9 11 11 11 10 10 10 12 14 15 16 17 18 19 19 19 18 18 18 17 17 17 17 16 16 15 13 12 11 11 12 12 13 13 14 14 13 13 13 13 13 12 11
11 10 12 14 14 13 14 15 16 17 17 18 17 17 17 18 17 17 18 18 16 14 13 12 12 11 10 9 9 8 8 8 7 6 5 4 3 1 2 3 4 6 8 9 10 10 10 10 10 10 13 15 16 18 19 21 21 20 20 20 19 20 21 22 20 20 18 16 15 14 13 12 12 13 13 14 14 15 15 16 16 15 15 15 15
12 12 13 14 15 14 14 14 16 18 19 20 20 20 20 21 20 20 21 22 21 17 15 15 14 14 13 12 11 11 11 11 10 9 8 6 5 3 1 1 2 4 6 8 9 9 9 10 9 10 12 15 17 18 20 21 22 21 23 24 23 23 24 25 25 24 21 18 17 16 16 16 16 16 16 15 15 15 15 16 16 16 17 17 17
11 11 11 11 11 11 12 13 15 17 18 19 19 20 20 20 21 20 21 24 24 21 18 17 16 16 16 15 14 14 14 14 13 12 11 9 7 5 4 2 1 2 5 6 7 7 8 8 8 10 11 13 16 17 18 19 19 19 22 25 27 28 28 28 28 26 21 18 19 19 20 22 22 21 19 18 16 15 15 15 15 16 16 17 17
9 9 9 9 10 11 12 13 15 16 17 18 18 19 18 17 18 19 19 22 23 20 18 19 19 19 18 17 17 17 17 16 14 13 13 12 9 7 6 4 3 1 3 5 5 6 7 7 7 8 10 12 14 15 18 19 19 18 20 21 23 28 30 30 29 25 20 20 22 24 26 27 26 25 23 21 19 17 17 16 15 15 15 16 16
10 9 10 11 12 14 15 15 16 17 18 19 19 19 18 17 18 18 18 18 19 17 18 19 20 20 20 19 19 19 19 18 16 15 15 15 12 10 8 6 5 4 4 4 5 6 6 7 8 8 10 12 14 15 17 18 17 17 19 19 21 24 27 31 29 21 17 21 26 29 31 29 27 27 25 24 22 20 19 18 17 16 15 14 15
9 8 9 10 11 12 13 13 13 14 15 15 16 16 17 17 17 18 17 17 17 17 17 18 19 19 19 19 19 20 19 19 19 19 17 16 13 9 7 6 5 4 4 4 5 5 6 7 8 9 11 13 13 14 15 15 16 18 20 21 23 25 26 28 27 22 19 23 29 32 32 28 25 25 25 24 23 21 20 19 17 14 13 13 14
4 4 4 5 7 8 10 10 10 10 10 10 9 10 11 12 14 16 16 15 15 15 16 16 16 16 16 16 17 18 19 19 21 21 17 15 13 9 7 6 5 4 4 3 3 4 5 6 7 8 9 10 12 13 13 15 17 19 21 21 22 24 23 20 19 21 24 26 28 31 32 28 24 23 24 23 22 20 17 16 15 12 10 11 12
3 2 1 1 3 4 5 6 7 8 9 8 6 5 6 7 8 10 11 12 12 13 14 14 14 14 14 13 14 15 16 18 20 19 16 15 13 11 9 7 5 4 3 3 4 4 5 5 6 7 7 8 11 12 13 15 17 19 21 21 20 20 20 17 16 20 25 26 25 27 30 29 24 23 24 22 19 18 15 14 14 12 10 10 10
6 5 4 3 3 4 4 5 5 5 5 5 3 3 4 5 4 4 6 7 9 10 11 12 12 13 13 13 13 14 15 15 16 16 17 17 15 12 9 6 4 3 3 5 5 5 5 5 6 7 7 8 10 12 13 14 16 18 18 18 18 17 17 17 18 21 24 22 21 23 27 29 25 22 23 22 19 19 18 16 15 12 10 9 10
5 4 3 3 4 5 6 7 8 7 6 5 3 2 4 4 3 3 4 6 8 9 10 10 11 11 11 11 11 11 11 11 13 17 19 17 14 11 7 4 2 3 4 5 5 5 5 6 8 8 8 10 11 12 13 13 14 15 15 16 16 16 17 18 18 21 21 19 18 19 20 23 23 22 23 23 21 21 20 18 15 12 9 9 10
4 2 1 2 4 5 7 8 8 8 8 6 5 3 3 3 3 3 4 6 8 9 9 9 9 9 8 7 7 7 8 10 14 18 16 13 10 7 4 3 3 4 4 5 5 7 7 8 9 9 11 12 12 12 13 13 13 13 13 15 16 17 19 19 19 22 20 16 18 16 14 16 20 22 24 25 24 23 21 19 16 12 9 9 10
5 4 3 2 3 4 5 5 6 6 7 7 6 4 3 3 3 3 4 5 6 7 7 6 6 5 4 3 4 7 10 14 15 12 10 8 6 4 3 3 3 4 5 6 7 8 9 9 10 11 11 11 12 12 12 12 13 13 14 15 16 17 18 17 18 18 17 18 19 16 14 15 18 20 22 24 25 24 22 19 16 11 7 7 11
6 5 4 3 4 4 4 4 4 5 5 6 5 4 3 3 2 3 4 5 4 4 3 3 2 2 2 3 6 10 13 14 11 8 6 5 4 3 3 3 4 5 6 7 8 8 9 10 10 10 10 10 11 12 12 13 13 14 16 16 17 17 15 13 14 14 15 18 16 12 13 16 18 20 22 23 24 22 20 18 12 7 7 11 16
5 5 4 4 4 3 3 3 3 4 4 4 4 3 2 2 2 2 3 3 2 2 1 1 3 5 7 7 8 9 10 9 7 6 5 4 4 4 4 5 5 5 5 6 7 7 8 8 9 9 10 11 12 13 14 14 14 15 16 17 17 17 13 10 13 15 15 13 9 9 15 19 19 20 21 22 22 20 17 13 9 9 14 18 20
5 5 4 3 2 2 2 3 3 3 2 3 3 3 2 2 2 3 3 4 4 4 5 5 6 7 8 8 7 6 6 6 5 5 4 4 4 4 5 5 5 5 5 6 7 7 8 9 10 11 12 13 14 15 15 15 15 15 16 16 16 17 15 12 12 14 13 9 7 12 19 20 19 19 19 18 17 14 12 12 13 17 20 20 21
Wind_Direction
233 238 245 251 257 269 274 260 246 240 224 221 240 233 227 238 222 194 176 151 16 344 338 8 29 23 20 43 190 197 204 209 208 206 206 205 204 212 225 238 244 234 206 198 208 197 200 213 201 196 198 186 183 177 180 203 220 218 201 116 116 116 116 117 114 109 106 114 120 117 115 114 109 107 106 102 101 104 108 109 108 107 107 105 105
233 245 252 256 260 269 274 260 254 256 238 229 232 231 239 249 251 247 243 262 309 309 311 330 3 12 15 21 219 209 214 228 228 213 211 212 212 214 224 234 242 240 222 210 210 198 205 219 210 207 213 204 199 192 187 200 220 222 221 227 230 125 105 111 120 124 123 123 127 126 123 121 117 111 109 107 104 105 110 108 106 113 115 112 110
224 243 250 255 253 259 273 262 260 287 293 255 235 235 249 259 262 264 266 274 295 290 284 299 284 299 358 20 11 238 230 239 244 230 217 216 217 219 225 231 237 240 233 229 223 203 211 224 219 216 222 216 210 209 204 202 210 224 237 245 254 265 276 166 122 137 139 136 138 143 140 133 130 126 120 113 110 108 111 111 111 119 119 113 109
223 237 235 225 212 218 259 272 296 322 274 256 237 240 254 262 262 266 272 272 274 258 250 281 268 262 313 0 5 291 244 244 251 254 237 225 225 226 227 231 235 237 236 239 239 210 209 225 233 227 222 221 218 217 219 211 203 215 240 254 251 257 272 266 235 171 155 162 160 156 158 153 146 143 137 125 122 120 120 122 119 119 121 120 117
222 230 225 208 194 193 227 271 287 288 260 245 243 245 253 257 259 263 266 267 266 239 222 251 255 252 278 328 352 341 249 246 253 260 251 231 230 234 233 234 235 234 236 238 244 229 211 223 241 239 228 228 224 222 225 220 215 214 225 247 250 246 257 261 246 217 184 191 190 176 169 163 161 157 152 146 141 131 126 132 133 126 124 127 126
223 231 228 221 215 207 238 279 279 288 285 263 252 249 253 259 259 259 260 267 267 235 213 219 225 230 249 294 338 354 234 229 242 247 241 229 226 234 237 239 239 237 239 238 241 241 224 227 237 243 241 242 231 227 228 224 230 226 219 236 246 242 247 252 244 235 225 217 215 203 189 175 173 170 164 168 161 148 140 141 143 135 125 125 130
220 230 231 224 223 223 218 246 273 291 286 272 267 261 261 263 260 255 256 265 259 226 210 211 211 205 210 249 307 344 312 204 224 230 232 227 222 229 236 241 243 240 242 242 243 243 234 232 236 244 246 246 242 238 232 226 235 236 226 230 237 242 246 244 240 243 246 237 231 232 214 202 191 185 181 182 175 166 158 151 152 149 139 132 129
209 220 219 207 209 217 191 174 235 269 278 277 275 274 270 267 259 252 252 252 234 207 198 208 211 200 179 182 50 343 353 203 221 227 232 230 222 225 232 239 245 246 246 249 252 252 247 241 238 245 246 239 243 246 237 231 234 239 236 230 234 254 253 241 241 243 249 247 237 237 231 229 221 206 194 187 187 184 174 161 161 162 161 153 141
198 212 198 188 196 213 207 195 233 247 264 269 269 274 272 265 259 255 247 234 221 201 181 183 206 207 194 191 201 224 238 213 222 228 232 233 227 225 230 237 245 250 251 252 257 258 257 256 249 249 246 237 240 247 248 244 238 238 244 234 232 253 252 239 243 244 245 249 242 236 231 233 234 221 204 192 194 195 190 182 173 172 175 175 164
168 187 160 159 168 177 202 210 245 253 256 259 263 268 265 262 262 261 244 221 216 205 185 171 171 195 196 194 196 197 211 210 221 231 230 232 232 230 232 237 243 249 251 252 256 259 261 263 261 258 255 247 242 245 248 253 249 240 242 241 235 243 242 235 241 244 243 244 242 244 243 241 235 225 220 209 198 193 196 198 190 184 184 186 183
135 137 116 104 107 111 140 177 236 251 250 258 268 267 254 253 252 245 234 217 212 208 192 183 178 181 182 182 182 181 190 194 207 224 225 226 229 233 235 238 242 244 246 250 254 259 261 260 261 262 263 258 250 247 247 250 254 248 243 247 246 244 242 238 239 243 245 244 243 248 253 251 242 230 228 224 210 199 199 201 202 204 200 195 192
113 112 109 102 90 79 82 103 221 244 248 257 272 275 256 257 257 228 223 229 227 219 199 186 173 157 163 176 170 169 178 175 161 168 187 205 215 225 234 240 245 245 246 248 252 257 257 255 256 259 262 264 260 255 255 254 253 253 248 248 250 245 244 244 241 239 242 243 244 249 256 258 253 242 236 234 225 216 214 207 209 218 216 209 203
114 113 112 112 100 86 80 91 151 228 248 253 259 256 231 272 298 261 234 246 242 226 212 198 178 161 163 190 163 162 175 177 171 159 157 168 178 191 204 220 239 246 249 248 250 253 254 254 253 253 258 261 263 263 262 263 260 256 250 247 251 248 244 247 247 244 245 244 244 248 259 266 263 254 246 242 238 231 229 226 226 228 226 223 220
126 133 129 126 118 117 121 132 167 219 254 270 266 189 193 239 275 249 235 247 242 226 220 221 207 190 181 254 337 136 169 186 199 202 189 186 187 191 194 196 213 231 247 254 254 255 259 261 257 256 262 266 267 268 267 267 266 264 260 253 252 253 249 246 248 254 255 249 246 248 259 270 272 269 259 249 247 245 239 237 238 237 233 233 232
133 142 142 133 124 135 144 145 157 207 262 293 283 206 192 219 234 232 251 261 243 239 227 230 249 186 153 141 302 2 11 237 210 214 216 218 218 219 219 217 225 235 249 265 268 271 275 273 267 263 270 275 268 265 269 271 270 270 268 263 258 258 259 254 247 253 257 253 247 244 254 267 270 271 268 259 256 254 249 245 243 243 240 242 240
146 146 147 133 128 143 140 132 120 103 24 322 301 249 199 211 226 236 259 246 223 261 245 220 246 199 138 82 38 62 325 272 155 196 211 224 230 231 230 230 235 243 254 275 282 284 286 282 276 269 272 280 273 270 270 267 266 268 269 268 266 261 258 256 248 243 243 245 244 239 246 260 266 267 266 263 261 259 259 255 249 249 246 245 247
136 136 138 122 124 141 133 125 118 95 65 38 18 4 235 209 194 223 258 244 217 246 263 223 177 190 180 138 108 24 255 181 117 131 183 209 218 217 221 226 235 240 244 275 287 282 284 286 287 286 286 282 271 273 273 266 266 270 273 275 272 268 264 262 259 253 244 236 233 231 236 250 259 262 262 259 259 258 259 260 257 256 251 247 248
126 127 128 118 121 136 134 124 110 90 76 55 48 50 41 74 128 162 227 242 225 223 225 223 125 138 148 147 148 184 177 147 120 209 174 179 188 189 203 220 235 238 206 250 346 336 318 301 293 296 302 295 259 269 280 282 284 288 293 291 278 270 267 266 266 266 262 250 239 231 228 238 247 253 257 256 254 254 256 258 258 255 250 246 245
127 124 124 121 115 129 148 146 129 116 100 76 69 68 64 74 98 112 102 94 234 207 181 187 142 99 99 112 115 134 145 143 160 179 139 121 111 97 80 64 51 54 85 65 38 31 17 344 309 299 296 289 278 282 294 299 302 303 305 302 293 280 272 274 274 270 270 266 258 247 237 238 240 241 246 249 250 251 252 254 257 255 249 246 242
126 125 122 116 110 125 153 167 169 164 130 98 87 77 83 95 93 93 93 87 98 171 175 192 208 195 151 92 97 130 139 147 168 168 143 136 96 75 81 82 75 67 60 42 54 54 34 27 356 322 306 289 289 303 320 326 326 323 315 311 313 312 303 298 295 283 275 267 260 253 248 247 245 241 242 244 247 249 248 250 255 256 251 248 245
129 128 120 111 111 133 155 168 172 159 117 104 102 90 91 101 95 86 86 87 87 110 147 167 195 196 168 122 107 112 101 93 99 80 70 90 106 57 77 79 66 61 72 77 71 71 62 56 45 25 10 331 312 329 348 360 5 2 357 355 346 343 348 350 349 353 347 279 253 245 246 248 247 247 248 247 247 247 247 249 252 255 252 250 249
137 129 118 108 107 127 151 160 151 128 118 116 117 112 101 100 95 87 80 75 74 81 104 117 121 122 120 113 104 95 79 63 53 57 66 75 90 69 56 70 66 65 76 83 82 79 75 70 60 53 50 46 35 22 14 9 6 6 15 29 21 359 358 9 22 44 69 76 229 239 246 247 246 251 254 256 256 253 251 250 250 253 255 252 253
140 128 117 107 101 109 117 114 105 102 111 118 124 125 121 118 109 96 84 71 72 81 91 100 103 102 99 95 89 81 78 70 56 64 81 90 102 88 67 82 87 81 79 78 77 77 75 72 69 67 67 67 66 62 56 50 38 28 19 11 8 7 18 35 55 75 89 89 83 75 54 281 260 259 258 260 265 267 263 258 255 256 257 255 255
139 130 118 107 98 101 100 95 91 88 95 107 122 127 125 125 117 105 99 95 95 95 94 97 98 98 94 89 86 79 75 72 64 66 79 103 118 109 90 96 94 91 86 77 71 68 67 68 67 67 69 69 70 70 70 68 64 60 57 46 42 44 49 54 67 77 78 74 72 67 60 46 16 329 283 273 271 271 271 269 266 264 263 260 258
142 136 123 110 99 96 94 91 87 84 85 91 102 117 122 118 113 111 108 104 103 99 97 97 93 93 95 91 85 79 73 70 69 71 76 94 110 106 97 108 112 102 86 77 72 64 59 59 61 61 62 63 65 66 69 70 68 67 67 68 67 63 61 60 64 69 68 64 61 54 47 36 26 19 354 328 302 281 279 281 282 280 278 274 271
147 142 132 121 108 101 99 96 92 88 85 87 95 110 122 120 114 113 110 106 101 96 95 96 94 94 94 92 86 82 79 76 73 74 75 76 88 112 111 97 101 98 79 70 71 66 54 50 51 54 54 54 55 57 59 62 64 63 65 68 67 62 60 60 58 59 63 62 59 48 31 16 9 4 349 333 317 299 291 290 290 289 288 288 285
155 150 143 135 120 112 109 100 93 88 84 85 89 101 114 117 117 113 106 101 96 94 94 96 96 94 93 95 93 88 84 82 77 73 72 69 70 99 132 122 92 80 76 70 64 60 54 46 45 45 46 46 46 47 49 51 51 50 53 56 56 53 49 48 47 44 46 47 47 37 2 339 336 333 326 316 303 295 290 286 284 283 284 285 284
167 166 163 156 143 129 114 101 88 75 74 76 79 89 100 103 110 111 105 103 96 91 91 91 93 95 97 99 98 94 88 83 82 77 75 72 67 75 102 128 130 108 69 62 58 54 50 45 42 40 39 41 42 42 42 45 41 35 35 36 35 34 28 24 22 18 16 11 4 357 338 321 314 311 309 305 298 293 290 286 283 279 277 277 278
174 179 181 180 174 172 189 237 303 28 38 53 63 71 80 87 96 101 103 105 98 91 87 86 93 98 99 99 98 96 92 86 86 84 81 78 71 68 70 83 110 130 116 57 59 54 47 42 40 36 33 36 39 39 39 42 39 32 31 31 28 26 18 10 9 7 4 0 355 346 335 322 316 312 312 309 304 297 292 289 289 287 282 278 276
177 182 185 186 180 177 199 255 268 275 296 311 32 38 49 66 80 90 97 101 96 93 87 84 94 102 101 101 101 97 93 88 85 84 83 78 71 68 67 69 78 87 105 119 87 62 54 44 39 33 29 31 34 36 39 40 38 33 32 33 33 30 20 11 13 12 10 9 4 358 349 335 324 318 315 313 311 307 301 298 298 300 300 294 288
184 185 188 190 186 181 186 226 260 264 265 258 261 313 345 13 38 72 89 93 94 95 93 88 94 104 104 103 102 98 93 89 85 81 79 75 69 68 69 70 72 73 85 105 99 57 55 45 37 32 28 26 27 31 36 36 33 30 26 27 30 27 20 18 19 17 18 20 19 17 12 1 350 337 328 323 319 318 314 309 307 307 308 306 302
192 193 194 199 201 203 205 217 246 259 257 250 251 262 273 295 316 342 63 85 91 90 97 101 103 109 109 105 104 101 96 91 87 80 76 74 70 68 69 70 70 68 72 83 94 89 62 42 30 29 27 23 20 22 26 28 27 25 20 16 12 8 6 8 8 6 9 10 13 15 14 13 9 0 351 343 335 331 326 321 318 313 310 308 304
198 205 212 219 224 232 238 243 252 260 261 258 257 261 264 268 272 271 267 233 188 142 122 120 125 133 125 115 112 113 108 93 88 85 81 81 75 71 69 65 66 64 61 71 85 92 67 39 26 25 24 20 18 17 16 15 15 15 13 9 6 3 359 357 353 348 347 346 348 351 353 355 355 353 352 348 341 339 336 332 329 323 319 313 308
208 216 225 233 241 247 249 253 258 262 265 265 263 266 269 268 267 263 257 249 241 229 217 192 167 168 170 154 136 134 139 123 109 107 98 96 89 75 69 60 61 61 55 60 70 70 56 36 22 21 21 17 15 14 10 8 6 5 6 5 5 5 1 358 354 347 341 335 330 329 328 329 330 330 331 332 333 332 331 331 329 327 324 319 313
227 234 244 252 259 264 263 261 263 266 267 268 268 269 273 275 275 272 266 260 253 246 239 232 218 207 205 201 186 170 173 172 148 142 135 118 98 77 76 68 62 63 58 52 52 51 44 30 15 13 15 14 11 9 6 4 2 1 2 2 2 4 2 358 355 352 347 340 332 325 321 318 316 315 314 314 314 315 316 317 318 316 314 314 313
239 242 250 254 259 267 269 271 275 277 276 276 277 278 278 279 279 279 276 270 263 261 255 247 240 234 227 222 219 213 209 209 201 186 181 168 119 76 83 80 66 62 59 49 43 41 36 27 16 10 9 8 7 4 359 357 357 358 359 359 357 358 358 356 355 353 349 344 340 335 329 325 320 317 313 309 306 304 304 303 304 305 303 302 303
236 235 238 238 238 248 261 273 280 280 278 278 283 289 288 282 279 280 281 276 269 267 265 260 254 249 245 238 233 232 230 227 224 219 210 207 201 146 93 86 67 54 50 43 38 35 30 26 19 8 2 0 1 359 356 355 354 352 353 354 354 353 351 350 352 353 350 345 342 339 335 334 332 329 324 318 312 307 302 299 297 296 296 296 295
230 231 233 233 237 251 265 276 280 279 275 274 281 290 293 290 284 282 284 280 272 267 268 266 262 259 258 253 247 243 243 241 236 232 225 219 213 203 171 135 87 50 40 33 26 23 22 21 16 5 358 356 356 355 354 354 352 350 348 347 348 349 347 345 346 349 349 345 341 339 336 334 333 333 330 326 321 315 309 303 299 296 294 293 292
227 229 234 239 252 268 278 280 280 280 276 275 281 288 293 297 294 289 289 283 274 270 271 269 265 264 264 261 257 252 252 252 247 243 236 227 219 215 209 196 169 48 25 18 11 7 8 10 7 1 356 354 353 351 350 352 352 351 351 348 343 341 342 342 342 343 344 341 338 335 333 331 330 330 329 327 325 322 316 312 307 303 299 295 293
221 228 242 259 275 283 285 283 280 278 277 279 285 289 290 292 293 292 290 281 274 273 277 276 273 268 263 260 259 256 255 255 253 253 249 240 230 220 215 211 210 271 344 351 351 353 354 354 356 357 354 351 351 349 347 349 352 351 351 348 339 336 337 336 337 341 340 337 335 331 329 330 329 329 329 328 328 327 322 319 316 311 307 303 298
230 246 265 278 286 286 283 280 277 277 280 284 287 287 285 283 284 287 285 278 274 277 279 278 277 273 266 260 259 258 257 255 254 255 253 248 241 231 223 222 230 263 300 320 332 339 339 338 340 347 350 350 351 349 346 348 349 342 340 339 334 333 333 331 334 340 339 334 333 330 330 333 332 331 331 330 331 332 329 326 323 318 314 309 303
248 264 276 282 286 286 285 285 282 279 284 289 288 283 281 281 282 281 279 276 277 278 277 275 276 276 272 269 266 261 257 253 250 249 247 242 238 233 230 227 234 263 287 302 317 322 324 329 333 341 347 347 346 346 342 340 338 333 333 335 332 332 334 333 334 335 335 336 335 330 331 336 337 333 333 334 334 335 333 330 327 323 319 317 312
237 247 262 274 279 282 282 281 275 271 277 287 287 283 285 286 283 279 274 274 276 279 280 280 281 283 282 279 274 268 261 252 246 243 237 227 220 216 215 219 232 258 279 295 306 311 317 323 325 332 338 337 336 337 333 330 329 327 329 330 330 331 334 335 329 325 331 339 338 331 329 334 339 336 333 335 336 337 336 331 327 322 318 319 317
124 121 92 324 311 304 294 286 278 275 279 284 289 301 307 299 289 283 277 275 277 280 282 281 281 284 285 281 278 275 267 256 246 237 222 209 205 207 211 218 231 247 272 297 302 302 305 307 311 319 326 329 330 329 326 324 322 321 323 324 326 328 328 325 316 315 327 339 339 331 326 330 339 337 332 335 340 341 340 333 325 318 311 313 312
95 83 73 52 27 17 4 354 344 332 317 304 297 302 295 283 280 288 287 282 280 281 282 279 277 279 280 278 277 274 268 260 244 225 209 201 198 199 203 209 219 243 285 300 299 298 302 307 311 314 320 325 324 321 320 319 318 319 320 320 322 323 320 319 314 314 325 335 338 331 322 325 335 336 330 335 341 339 336 333 327 317 304 304 307
97 86 67 40 28 24 22 17 10 5 360 346 326 291 269 264 267 283 287 284 284 285 285 285 284 284 283 282 278 268 262 250 221 202 195 192 188 185 186 197 233 275 293 298 302 310 313 315 315 317 321 322 319 316 316 316 315 316 316 314 316 317 314 313 311 313 320 328 334 329 315 318 333 335 328 332 336 334 333 330 327 317 300 299 307
128 120 84 39 32 26 18 12 5 360 357 353 345 319 281 268 268 279 285 285 288 292 292 291 290 287 287 283 265 244 227 202 187 185 184 181 178 178 186 221 260 278 288 298 309 315 318 318 319 322 324 321 319 318 317 316 315 312 309 308 309 311 312 311 310 313 316 323 332 325 299 306 329 330 323 327 330 330 330 330 325 317 301 298 309
154 145 126 80 47 34 20 11 2 353 346 344 343 331 304 283 270 278 285 283 286 294 300 304 304 300 296 269 223 200 182 169 166 172 176 178 183 196 218 244 267 283 294 303 310 314 317 320 321 322 322 321 320 320 318 316 314 311 309 308 309 313 314 311 311 313 315 322 329 320 294 302 323 322 316 320 323 322 325 328 326 318 304 300 312
141 130 111 88 72 62 51 36 17 358 339 332 333 326 303 280 257 257 266 266 274 292 308 335 4 54 109 161 176 172 165 160 159 165 176 190 211 231 246 258 273 287 297 306 311 315 318 320 323 325 325 324 320 317 315 312 310 311 312 312 315 318 316 311 310 310 311 318 327 324 303 305 318 318 313 314 316 315 318 325 330 327 315 311 313
126 113 98 90 84 69 47 23 0 344 323 314 312 306 284 253 230 229 240 233 218 219 209 135 123 126 133 146 159 166 167 165 169 181 197 224 246 255 263 263 264 278 294 303 307 311 315 317 321 321 321 321 318 315 314 311 307 306 308 311 316 319 314 306 307 310 311 314 326 327 311 308 315 318 314 313 312 309 309 317 323 318 313 312 313
104 96 91 83 66 31 359 338 327 314 292 286 287 284 263 225 214 213 207 193 181 182 182 170 159 152 149 150 155 167 177 180 189 209 228 248 261 266 268 269 275 288 300 307 311 315 318 319 319 319 319 319 317 316 314 312 309 305 304 307 312 315 313 307 306 312 312 306 313 318 312 308 311 315 315 315 312 307 306 307 305 306 309 311 311
Height
822 823 823 823 824 826 827 828 828 830 832 833 833 833 832 832 832 833 833 834 834 834 834 835 835 836 837 838 839 839 840 840 840 840 841 841 842 843 843 844 844 844 844 845 846 847 848 849 849 849 849 849 849 849 850 850 850 850 850 850 850 850 850 850 850 850 850 850 850 850 850 850 850 850 850 850 850 850 850 850 851 851 851 851 851
821 822 822 823 824 825 826 827 827 829 831 831 832 832 832 832 832 832 833 833 834 834 834 834 835 836 837 837 838 839 840 840 840 840 841 841 842 843 843 844 844 844 844 845 846 847 848 849 849 849 849 849 850 850 850 850 850 850 851 851 851 851 851 850 850 850 850 851 851 851 851 851 851 851 851 851 851 852 852 852 852 852 852 852 852
821 821 822 822 823 824 825 826 827 828 829 829 830 831 832 832 832 832 833 833 833 833 833 834 835 835 836 837 838 839 839 840 840 840 841 841 841 842 843 843 844 844 845 845 846 847 848 849 849 849 850 850 850 850 851 851 851 851 851 851 852 852 851 851 851 851 851 851 851 851 852 852 852 852 852 852 853 853 853 852 853 853 853 853 853
821 821 821 822 823 824 824 825 826 827 828 829 829 830 831 831 832 832 832 832 832 832 833 833 834 835 836 837 837 838 839 839 839 840 840 841 841 842 842 843 843 844 844 845 846 847 848 848 849 849 850 850 850 851 851 851 851 851 851 851 852 852 852 852 851 851 851 851 851 852 852 852 852 853 853 853 853 853 853 853 853 853 854 854 854
820 820 821 822 823 823 824 824 825 826 827 828 828 829 830 831 832 832 832 832 832 832 833 833 834 835 835 836 837 837 838 838 839 839 840 840 841 841 842 843 843 843 844 844 845 846 847 848 849 849 849 850 850 851 851 851 851 852 852 851 852 852 852 852 852 852 852 852 852 852 852 852 853 853 853 853 854 854 854 854 854 854 854 854 854
820 820 821 822 822 823 824 824 825 825 826 827 828 829 830 831 831 831 831 831 831 832 832 833 833 834 835 835 836 837 837 837 838 838 839 839 840 841 842 842 842 843 843 844 845 846 847 847 848 849 849 849 850 850 851 851 851 851 851 852 852 852 852 852 852 852 852 852 852 852 852 852 852 853 853 854 854 854 854 854 854 855 855 855 855
820 820 821 821 822 822 823 824 824 825 826 826 827 828 829 830 830 831 831 831 831 832 832 833 833 834 834 835 836 836 836 837 837 838 838 839 839 840 841 842 842 843 843 844 844 845 846 847 848 848 849 849 849 850 850 851 851 851 851 852 852 852 852 852 852 852 852 852 852 853 853 852 852 852 853 853 854 854 854 854 855 855 855 856 856
819 820 820 821 821 822 822 823 824 825 825 826 827 828 829 829 830 830 831 831 832 832 832 833 833 834 834 835 835 836 836 837 837 837 837 838 839 839 840 841 842 842 843 844 844 845 845 846 847 847 848 849 849 850 850 851 851 851 852 852 852 852 852 852 852 852 852 852 853 853 853 853 853 852 853 853 853 854 854 854 854 855 855 856 856
819 819 820 820 821 822 822 822 823 824 825 825 826 827 828 829 829 830 831 831 832 832 832 833 833 834 834 835 835 836 836 837 837 837 837 837 838 839 840 841 841 842 842 843 844 844 845 845 846 846 847 848 848 849 850 850 851 851 852 852 853 853 853 852 852 852 853 853 853 853 853 853 853 853 852 853 853 853 854 854 854 855 855 855 856
818 819 819 820 821 821 822 822 823 824 824 825 826 828 828 829 829 830 830 831 832 832 832 833 833 834 834 835 835 836 836 836 836 836 837 837 838 838 839 840 841 841 842 842 843 843 844 844 845 845 846 847 848 849 849 850 850 851 852 852 853 853 853 853 853 853 853 853 853 853 853 853 853 852 852 853 853 853 853 854 854 855 855 855 856
818 818 819 820 821 821 822 822 822 823 824 825 826 827 828 828 829 829 830 831 831 832 833 833 834 834 834 835 835 835 836 836 836 836 836 837 837 838 839 839 840 840 841 841 842 843 843 843 844 845 845 846 847 848 849 850 850 851 852 852 853 853 853 853 853 853 853 853 853 853 853 853 852 852 852 853 853 853 853 853 854 854 855 855 856
818 818 818 819 820 820 821 821 822 822 823 825 826 827 828 828 829 829 830 830 831 832 833 833 834 834 835 835 835 835 836 836 836 836 837 837 837 838 838 839 839 840 840 841 841 842 842 842 843 844 844 845 846 847 848 849 850 851 851 852 852 853 853 853 853 853 853 854 854 854 854 853 853 853 853 853 853 853 853 854 854 854 855 855 856
820 819 819 819 820 820 821 821 822 823 824 825 826 826 827 828 829 829 830 830 831 832 833 833 834 835 836 835 835 836 836 836 837 837 837 837 838 838 839 839 839 840 840 840 840 841 841 841 842 843 844 845 846 848 848 849 849 850 850 851 851 851 852 853 853 854 854 855 855 855 855 855 854 854 854 854 854 854 853 854 854 854 855 855 855
821 821 821 821 822 822 822 823 823 824 824 825 825 826 827 828 829 829 829 830 831 832 832 833 834 835 836 836 835 836 836 837 837 838 838 838 839 839 839 840 840 840 840 840 840 840 840 841 841 842 843 844 847 848 848 849 849 850 850 850 850 850 851 852 854 855 856 856 857 857 857 856 856 856 855 855 855 854 854 854 854 854 854 854 855
823 823 823 824 824 824 824 824 825 825 825 825 826 826 827 828 829 829 830 830 831 831 832 833 833 834 836 837 837 837 837 838 838 838 838 839 839 839 839 840 840 840 840 840 840 840 840 840 840 841 842 844 846 846 846 847 848 849 849 850 850 850 851 852 854 855 856 857 857 858 858 858 857 857 856 856 855 855 855 854 854 854 854 854 854
824 824 825 825 825 825 825 825 826 826 826 826 826 826 827 828 829 829 830 830 830 831 832 833 834 834 835 838 839 839 838 838 838 838 838 838 839 839 839 840 840 840 840 840 840 839 839 840 840 840 840 842 844 844 844 844 845 846 848 848 850 850 851 852 852 853 853 854 855 856 857 857 857 857 857 856 856 855 855 854 854 854 853 854 854
824 825 825 826 826 826 826 826 826 826 826 827 827 827 827 828 829 829 830 830 830 831 832 834 835 834 834 836 838 840 839 838 838 838 838 838 839 839 839 839 840 840 840 840 840 839 839 839 839 839 839 841 843 843 843 843 843 845 846 847 848 849 850 852 852 852 852 852 853 854 855 856 856 857 856 856 856 855 855 854 854 853 853 853 853
825 825 825 826 826 826 826 826 826 827 827 827 827 828 828 828 829 829 830 830 831 831 832 833 834 834 834 835 836 837 837 837 839 839 838 839 839 839 839 839 840 840 840 840 840 839 839 839 839 839 839 840 843 844 843 843 843 844 845 846 847 847 848 850 851 852 852 852 852 852 852 853 854 855 855 854 854 854 854 854 853 853 852 852 852
825 825 826 826 826 826 826 826 827 827 827 828 828 829 829 829 829 830 830 830 830 831 832 833 834 834 834 835 835 835 834 835 837 838 839 839 839 839 840 840 840 840 840 840 840 840 840 840 840 840 841 841 842 842 842 842 842 843 844 844 845 845 845 846 848 850 851 852 852 852 852 851 851 852 852 852 852 852 852 852 852 852 852 851 852
826 826 826 826 827 826 827 827 827 827 828 828 829 830 830 831 831 831 831 831 830 831 832 833 833 834 834 835 835 834 833 833 834 835 836 838 840 840 840 841 840 840 841 841 841 841 841 841 840 840 840 840 840 840 841 841 841 842 842 842 843 844 844 844 846 847 848 848 849 850 850 849 849 850 850 850 850 850 850 851 851 851 851 851 851
826 826 827 827 827 827 827 827 828 828 828 829 830 831 832 832 832 832 832 832 831 832 832 832 833 834 834 835 835 835 834 833 833 834 835 837 840 841 841 841 841 841 841 841 842 842 842 841 841 840 840 840 840 840 840 840 840 841 841 841 842 844 844 844 844 845 846 845 845 846 847 847 848 848 848 848 848 849 849 850 850 850 850 850 850
826 827 828 828 828 828 828 828 829 829 829 830 831 832 833 833 833 833 833 833 833 833 833 833 833 834 834 835 835 835 834 834 834 836 836 837 840 842 842 842 843 844 843 843 843 843 842 842 841 841 840 840 840 839 839 840 840 840 840 840 842 844 844 844 844 845 846 845 844 844 844 844 845 846 846 846 846 848 849 848 848 848 848 849 849
826 827 828 829 829 829 830 830 830 831 831 832 833 834 834 834 834 834 834 834 834 834 834 834 834 835 835 835 835 835 835 835 836 836 837 837 840 842 843 843 844 845 845 845 844 844 844 843 842 842 842 841 841 840 840 840 840 840 841 841 843 844 844 844 844 845 846 845 844 843 843 843 843 844 845 844 845 847 847 847 846 847 846 847 847
826 828 829 830 831 831 831 832 832 832 833 834 835 835 836 836 836 836 836 836 836 836 836 836 836 835 836 836 836 836 836 837 837 837 837 838 839 842 844 844 845 846 847 846 845 845 845 845 844 844 844 843 842 842 842 842 842 842 842 843 843 844 843 843 844 844 845 844 843 842 842 843 843 843 843 843 844 845 845 845 846 845 845 844 845
827 828 830 831 832 833 833 833 834 834 835 835 836 837 838 838 837 837 837 837 838 838 837 837 837 837 837 837 837 837 837 838 838 838 838 838 839 841 843 844 845 846 847 847 847 847 847 846 846 846 845 844 844 844 843 843 843 843 843 843 843 843 843 843 843 843 844 843 843 843 842 842 842 842 843 843 843 843 843 844 844 843 843 842 842
828 829 830 832 833 834 834 835 835 836 836 837 838 839 839 839 839 839 838 839 839 839 839 839 839 839 838 838 838 838 838 839 839 839 839 839 839 840 842 844 846 847 847 848 848 848 848 848 848 847 846 845 845 845 844 844 844 844 844 843 843 843 843 842 842 843 843 843 842 842 842 842 842 842 842 842 842 842 842 842 841 841 840 840 840
828 830 831 832 833 835 835 836 836 837 838 839 840 840 840 840 840 840 840 840 840 840 840 840 840 840 840 840 840 840 840 840 840 840 840 840 840 841 842 843 846 848 849 849 849 849 850 850 849 848 847 847 846 845 845 845 844 844 844 844 843 843 843 843 842 842 842 842 842 842 842 841 841 841 841 841 841 841 841 841 840 839 838 838 838
829 830 832 833 834 835 836 837 837 838 840 841 841 841 841 841 841 840 840 841 841 840 841 841 841 841 841 841 841 841 841 841 841 841 841 841 841 841 842 842 844 847 849 850 851 851 852 851 850 849 848 848 847 846 846 845 845 844 844 844 843 843 843 842 842 842 842 841 841 841 841 840 840 840 840 840 839 839 839 839 838 838 837 836 836
830 831 832 833 834 835 836 837 838 839 841 842 842 843 842 842 841 841 841 841 842 841 841 841 841 842 842 842 842 842 842 842 842 842 842 842 842 842 842 842 843 845 848 851 853 853 853 852 851 850 850 849 848 847 846 845 845 845 844 844 844 843 843 842 842 842 841 841 841 840 840 840 839 839 839 838 838 838 837 837 836 836 835 835 834
830 831 832 833 834 835 836 838 839 840 841 843 843 844 844 843 842 842 842 842 842 843 843 843 842 843 843 843 843 843 843 843 843 843 843 843 843 843 843 844 844 844 846 850 853 853 853 853 852 851 850 849 849 848 847 846 846 846 845 845 844 844 844 843 842 842 841 841 841 840 840 839 839 838 838 838 837 837 836 836 835 834 834 833 833
830 831 832 833 834 836 837 838 839 840 842 843 844 845 845 844 844 843 843 843 843 843 843 844 844 844 844 844 844 844 844 844 844 844 844 844 844 844 844 845 845 845 846 848 851 853 853 853 852 851 850 849 849 848 847 847 847 846 846 846 845 845 844 843 843 842 842 841 841 840 840 839 838 838 837 837 836 835 835 834 834 833 832 832 831
831 832 833 834 835 836 837 838 839 841 842 843 844 845 845 845 845 844 844 844 844 844 844 845 845 845 845 844 845 845 845 845 845 845 845 845 845 845 845 845 845 846 847 847 850 852 853 852 852 851 850 849 849 848 847 847 847 847 846 846 845 845 844 844 843 842 842 841 841 840 839 839 838 837 836 835 835 834 833 833 832 832 831 830 830
830 832 833 835 836 837 838 839 840 841 842 843 844 844 845 845 845 845 845 845 845 845 845 845 845 845 845 845 845 845 846 846 846 846 846 846 846 846 846 846 846 847 847 847 849 852 852 852 851 851 850 849 849 848 847 847 846 846 846 845 845 844 844 843 843 842 842 841 840 840 839 838 837 836 835 834 833 833 832 831 831 830 829 829 828
830 831 833 835 836 837 838 839 840 841 842 843 843 844 845 845 845 844 845 845 845 845 845 845 845 845 845 845 845 845 846 846 846 846 846 846 846 846 846 847 847 847 847 848 849 850 851 851 851 850 850 849 848 848 847 846 846 846 845 845 844 843 843 842 842 841 840 840 839 838 838 837 836 835 834 833 833 832 831 830 830 829 828 827 827
830 832 833 835 836 837 838 839 840 840 841 842 843 843 844 844 844 844 844 844 844 844 844 845 845 845 845 845 845 845 846 846 846 846 847 847 847 847 847 847 847 847 848 848 848 849 849 850 850 849 849 848 848 847 847 847 846 845 844 844 843 843 842 842 841 840 839 838 837 837 836 835 835 834 833 832 832 831 830 829 828 828 827 826 825
830 832 834 835 836 837 838 838 839 840 840 840 841 842 843 843 843 844 844 844 844 844 844 844 844 844 845 845 845 845 845 846 846 846 846 847 847 847 847 848 848 848 848 848 848 848 849 849 849 849 848 848 848 847 847 846 845 845 844 843 842 842 841 841 840 839 838 837 836 835 834 834 833 832 831 831 830 829 828 827 827 826 825 824 824
830 831 832 834 835 836 837 838 838 839 839 839 839 840 841 841 841 842 843 843 843 842 843 843 843 843 844 844 844 845 845 845 845 846 846 847 847 847 848 848 848 848 848 848 848 848 848 849 849 849 848 848 847 847 846 845 844 843 843 842 841 840 840 839 838 838 836 835 834 833 833 832 831 830 830 829 828 827 826 825 824 824 823 822 821
828 829 830 832 834 835 836 836 837 837 837 837 837 838 839 839 839 839 840 842 842 841 841 841 842 842 843 843 843 843 844 844 844 845 845 846 847 847 848 848 848 848 848 848 848 848 848 848 848 848 848 847 847 846 845 844 843 842 841 840 839 839 838 836 835 835 834 833 832 831 831 830 829 828 828 827 826 825 824 823 822 821 820 819 819
828 829 830 831 832 833 833 833 834 834 835 835 836 836 837 838 838 837 837 840 841 840 839 839 840 841 841 842 842 842 842 842 843 844 845 845 846 847 847 847 847 847 847 847 848 848 848 848 847 847 847 847 846 846 845 844 843 842 840 838 836 835 835 834 833 832 832 831 830 829 828 828 827 826 825 824 823 822 821 820 819 818 817 817 816
827 828 829 829 830 830 831 831 832 832 832 833 834 834 835 836 836 835 835 837 839 839 837 837 838 838 838 839 840 840 840 841 842 843 844 844 845 845 846 846 846 846 846 847 847 847 847 847 847 846 846 846 846 845 844 843 843 842 841 840 838 835 833 832 832 831 829 829 828 827 826 825 824 823 822 821 821 820 818 817 816 816 815 814 813
826 827 827 827 827 828 829 829 830 830 830 831 832 832 833 834 834 834 834 835 836 836 835 835 835 835 836 836 837 838 838 839 840 841 842 843 843 844 844 845 845 845 845 846 846 846 846 847 846 845 845 845 845 844 843 843 842 842 841 841 839 837 834 831 830 830 829 827 825 824 823 822 821 820 819 818 817 817 816 815 814 813 812 811 810
824 825 825 825 826 826 827 827 828 829 829 830 830 831 831 831 832 833 834 834 834 834 833 833 833 833 833 834 834 835 836 837 838 838 840 841 842 843 843 844 844 844 845 845 845 846 846 846 846 845 844 844 844 844 843 842 842 841 840 839 837 835 833 830 828 827 827 826 823 821 820 820 819 818 817 816 815 814 813 812 812 811 810 809 807
822 823 823 823 824 825 826 826 827 828 829 829 830 830 830 830 831 832 832 832 832 831 831 831 831 831 831 832 832 833 834 835 836 837 838 840 841 842 842 843 843 843 844 844 845 845 845 845 846 845 844 843 843 843 843 842 841 840 839 838 837 835 833 831 828 826 825 825 823 819 817 818 818 816 815 814 813 812 812 810 809 809 808 807 806
821 821 822 823 824 824 825 825 826 827 827 828 828 829 829 829 830 830 830 830 830 829 829 829 829 829 829 830 830 831 832 832 833 835 836 838 839 840 841 842 842 842 843 844 844 844 844 844 845 844 843 842 842 842 842 841 840 840 839 838 837 835 833 832 830 827 825 825 823 819 816 815 816 815 813 812 812 811 810 809 808 807 806 805 804
820 821 822 823 824 825 825 826 826 826 826 827 827 828 828 829 829 830 829 829 828 828 828 828 828 828 828 828 829 829 829 830 831 833 835 836 837 838 840 841 841 842 843 843 843 843 843 843 843 843 842 841 841 841 841 840 839 839 838 837 836 835 833 832 830 828 826 825 823 820 816 814 814 813 812 811 810 809 808 807 806 805 804 803 803
821 822 823 824 825 825 826 826 826 826 826 826 827 828 828 829 829 829 829 828 828 827 827 827 827 827 827 827 827 827 828 829 830 831 833 834 836 837 839 840 841 841 842 842 842 842 842 842 842 842 840 840 840 840 840 839 838 838 837 835 834 833 832 830 829 827 826 825 823 820 816 814 813 812 810 809 808 807 806 805 804 803 802 801 801
823 824 824 825 825 825 825 826 826 826 826 826 827 827 828 828 828 828 828 827 827 827 826 826 826 825 825 826 826 827 827 828 830 832 833 834 836 837 838 839 840 840 841 841 841 841 840 841 841 840 839 839 839 839 838 838 837 836 835 834 833 831 830 828 827 825 824 824 823 820 816 813 813 811 809 808 806 805 804 803 802 801 800 799 799
824 825 825 826 826 826 826 826 826 826 826 826 827 827 827 827 827 827 827 827 826 826 826 825 825 825 825 825 826 827 828 829 831 833 834 835 836 837 838 839 839 840 840 840 840 839 840 839 839 838 838 838 838 837 837 837 836 835 834 832 831 830 828 826 824 823 822 821 821 819 815 812 812 810 807 806 804 802 802 801 800 799 798 798 797
824 825 825 826 826 826 826 827 827 827 827 827 827 826 827 827 826 826 826 826 826 826 826 826 826 826 826 827 827 828 829 831 832 833 834 835 836 836 837 838 838 839 839 839 839 839 838 838 837 837 837 837 837 836 836 836 835 833 832 831 830 829 827 825 823 821 820 819 818 817 814 811 810 809 806 804 802 800 799 798 798 797 796 796 796
823 824 825 825 826 826 826 826 826 826 826 826 826 826 826 826 826 826 826 826 826 827 827 827 827 827 828 829 829 830 831 831 832 833 834 835 835 836 837 837 838 838 838 838 838 838 837 837 837 837 836 836 836 835 835 834 834 833 831 830 828 827 826 825 822 820 818 817 816 816 813 810 809 808 805 801 799 798 797 796 796 796 795 794 793
822 823 824 824 825 825 825 825 825 825 825 825 825 826 826 826 826 826 826 827 827 827 828 828 829 829 829 830 830 831 831 832 833 833 834 834 835 835 836 836 837 837 837 837 837 837 836 836 836 835 835 835 834 834 833 833 832 831 830 829 827 826 825 823 822 820 817 815 815 815 812 809 807 806 805 801 797 794 795 795 794 793 793 792 791